Fernandina Beach, FL

1:31 AM EST on December 12, 2019 (GMT -0500)
Fernandina Beach

Weather History for KFHB - October, 2019

Change the Weather History Date:

Wednesday, October 9, 2019

  Actual Average (WUND) Record (WUND)
Temperature  
Mean Temperature 76 °F -  
Max Temperature 79 °F - - (-1)
Min Temperature 73 °F - - (-1)
Cooling Degree Days 11    
Growing Degree Days 26 (Base 50)    
Moisture  
Dew Point 68 °F    
Average Humidity 78    
Maximum Humidity 82    
Minimum Humidity 70    
Precipitation  
Precipitation 0.30 in - - ()
Sea Level Pressure  
Sea Level Pressure 30.03 in    
Wind  
Wind Speed 14 mph (NE)    
Max Wind Speed 21 mph    
Max Gust Speed 26 mph    
Visibility 10 miles    
Events      
Averages and records for this station are not official NWS values.
T = Trace of Precipitation, MM = Missing Value Source: NWS Daily Summary

Daily Weather History Graph

Daily Weather History Graph

Search for Another Location

Airport or City:

Astronomy

Oct. 09, 2019 Rise Set
Actual Time 7:24 AM EDT 7:01 PM EDT
Civil Twilight 7:00 AM EDT 7:25 PM EDT
Nautical Twilight 6:32 AM EDT 7:53 PM EDT
Astronomical Twilight 6:04 AM EDT 8:21 PM EDT
Moon 5:11 PM EDT (10/9) 3:32 AM EDT (10/9)
Length of Visible Light 12h 25m
Length of Day
11h 37m
Waxing Gibbous, 85% of the Moon is Illuminated
Oct 9
Waxing Gibbous
Oct 13
Full
Oct 21
Last Quarter
Oct 27
New
Nov 4
First Quarter

Hourly Weather History & Observations

Time (EDT) Temp. Dew Point Humidity Pressure Visibility Wind Dir Wind Speed Gust Speed Precip Events Conditions
12:15 AM 77.2 °F 70.2 °F 79% 29.99 in 10.0 mi NE 12.7 mph - N/A   Scattered Clouds
12:35 AM 77.4 °F 70.3 °F 79% 29.98 in 10.0 mi ENE 13.8 mph - 0.01 in   Mostly Cloudy
12:55 AM 77.4 °F 69.8 °F 77% 29.98 in 10.0 mi ENE 15.0 mph - 0.01 in   Mostly Cloudy
1:15 AM 77.2 °F 70.0 °F 78% 29.98 in 10.0 mi ENE 15.0 mph 18.4 mph 0.01 in   Mostly Cloudy
1:35 AM 77.4 °F 70.0 °F 78% 29.97 in 10.0 mi ENE 15.0 mph - 0.01 in   Mostly Cloudy
1:55 AM 77.5 °F 70.5 °F 79% 29.97 in 10.0 mi ENE 13.8 mph - 0.02 in   Overcast
2:15 AM 77.2 °F 70.7 °F 80% 29.97 in 10.0 mi ENE 13.8 mph - N/A   Mostly Cloudy
2:35 AM 76.8 °F 69.8 °F 79% 29.97 in 10.0 mi ENE 13.8 mph - 0.01 in   Scattered Clouds
2:55 AM 76.6 °F 69.4 °F 78% 29.97 in 10.0 mi ENE 12.7 mph - 0.01 in   Scattered Clouds
3:15 AM 76.6 °F 69.4 °F 78% 29.96 in 10.0 mi ENE 13.8 mph - 0.01 in   Mostly Cloudy
3:35 AM 76.5 °F 69.1 °F 78% 29.96 in 10.0 mi ENE 12.7 mph - 0.01 in   Scattered Clouds
3:55 AM 76.3 °F 68.9 °F 78% 29.96 in 10.0 mi ENE 16.1 mph 20.7 mph 0.02 in   Mostly Cloudy
4:15 AM 75.9 °F 68.7 °F 78% 29.95 in 10.0 mi ENE 11.5 mph 17.3 mph N/A   Scattered Clouds
4:35 AM 76.3 °F 69.1 °F 78% 29.96 in 10.0 mi ENE 15.0 mph - 0.01 in   Mostly Cloudy
4:55 AM 75.9 °F 68.0 °F 76% 29.96 in 10.0 mi NE 13.8 mph - 0.01 in   Mostly Cloudy
5:15 AM 76.3 °F 69.8 °F 80% 29.97 in 10.0 mi ENE 11.5 mph 17.3 mph 0.01 in   Mostly Cloudy
5:35 AM 76.1 °F 68.7 °F 78% 29.97 in 10.0 mi NE 11.5 mph - 0.01 in   Mostly Cloudy
5:55 AM 76.1 °F 69.3 °F 79% 29.98 in 10.0 mi ENE 12.7 mph - 0.02 in   Overcast
6:15 AM 75.9 °F 68.4 °F 77% 29.98 in 10.0 mi NE 11.5 mph - N/A   Mostly Cloudy
6:35 AM 75.9 °F 68.5 °F 78% 29.98 in 10.0 mi NE 15.0 mph - 0.01 in   Mostly Cloudy
6:55 AM 75.7 °F 68.5 °F 78% 29.99 in 10.0 mi NE 13.8 mph - 0.01 in   Clear
7:15 AM 75.9 °F 68.2 °F 77% 30.00 in 10.0 mi NE 15.0 mph 19.6 mph 0.01 in   Mostly Cloudy
7:35 AM 76.1 °F 68.2 °F 76% 30.01 in 10.0 mi NE 12.7 mph - 0.01 in   Overcast
7:55 AM 76.1 °F 68.0 °F 76% 30.01 in 10.0 mi NE 13.8 mph - 0.02 in   Overcast
8:15 AM 75.9 °F 69.3 °F 80% 30.02 in 10.0 mi NNE 13.8 mph 24.2 mph 0.01 in   Overcast
8:35 AM 76.1 °F 68.5 °F 77% 30.03 in 10.0 mi NE 13.8 mph 19.6 mph 0.01 in   Overcast
8:55 AM 76.5 °F 68.9 °F 77% 30.03 in 10.0 mi NE 13.8 mph - 0.02 in   Overcast
9:15 AM 76.6 °F 69.4 °F 78% 30.04 in 10.0 mi NE 17.3 mph 20.7 mph N/A   Overcast
9:35 AM 77.0 °F 69.1 °F 76% 30.05 in 10.0 mi NE 12.7 mph - 0.01 in   Overcast
9:55 AM 76.8 °F 68.7 °F 76% 30.06 in 10.0 mi NE 17.3 mph 24.2 mph 0.01 in   Overcast
10:10 AM 76.6 °F 68.4 °F 75% 30.07 in 10.0 mi NE 16.1 mph - 0.01 in   Overcast
10:35 AM 76.8 °F 69.1 °F 77% 30.08 in 10.0 mi ENE 16.1 mph 21.9 mph 0.01 in   Overcast
10:55 AM 76.8 °F 68.9 °F 76% 30.07 in 10.0 mi NE 16.1 mph 20.7 mph 0.02 in   Overcast
11:15 AM 77.4 °F 69.3 °F 76% 30.08 in 10.0 mi NE 17.3 mph 21.9 mph N/A   Overcast
11:35 AM 77.7 °F 69.3 °F 75% 30.08 in 10.0 mi NE 17.3 mph 21.9 mph 0.01 in   Overcast
11:55 AM 78.8 °F 69.4 °F 73% 30.08 in 10.0 mi NNE 19.6 mph - 0.01 in   Overcast
12:15 PM 79.7 °F 69.6 °F 71% 30.08 in 10.0 mi NE 15.0 mph 25.3 mph 0.01 in   Mostly Cloudy
12:35 PM 79.2 °F 68.7 °F 70% 30.08 in 10.0 mi NE 20.7 mph 25.3 mph 0.01 in   Scattered Clouds
12:55 PM 79.0 °F 68.4 °F 70% 30.07 in 10.0 mi NE 19.6 mph 26.5 mph 0.02 in   Mostly Cloudy
1:15 PM 78.8 °F 68.4 °F 70% 30.07 in 10.0 mi NE 11.5 mph 24.2 mph N/A   Overcast
1:35 PM 78.6 °F 68.4 °F 71% 30.06 in 10.0 mi NNE 17.3 mph 23.0 mph 0.01 in   Mostly Cloudy
1:55 PM 78.4 °F 67.8 °F 70% 30.06 in 10.0 mi NE 20.7 mph 24.2 mph 0.01 in   Mostly Cloudy
2:15 PM 77.7 °F 68.4 °F 73% 30.05 in 10.0 mi NNE 17.3 mph 23.0 mph N/A   Mostly Cloudy
2:35 PM 77.2 °F 68.7 °F 75% 30.05 in 10.0 mi NE 13.8 mph 23.0 mph 0.01 in   Mostly Cloudy
2:55 PM 76.3 °F 68.0 °F 75% 30.05 in 10.0 mi NNE 15.0 mph - 0.01 in   Overcast
3:15 PM 75.2 °F 68.5 °F 80% 30.04 in 10.0 mi NE 16.1 mph - N/A   Overcast
3:35 PM 74.5 °F 68.7 °F 82% 30.04 in 10.0 mi NNE 12.7 mph 20.7 mph 0.01 in   Overcast
3:55 PM 74.7 °F 68.2 °F 80% 30.04 in 10.0 mi NE 17.3 mph 21.9 mph 0.01 in   Overcast
4:15 PM 74.7 °F 68.0 °F 80% 30.03 in 10.0 mi NE 13.8 mph - N/A   Overcast
4:35 PM 74.5 °F 67.6 °F 79% 30.03 in 10.0 mi NNE 17.3 mph 23.0 mph 0.01 in   Overcast
4:55 PM 73.8 °F 67.5 °F 81% 30.03 in 10.0 mi NNE 15.0 mph 21.9 mph 0.01 in   Overcast
5:15 PM 73.8 °F 67.1 °F 80% 30.03 in 10.0 mi NNE 11.5 mph 20.7 mph N/A   Overcast
5:35 PM 73.8 °F 67.1 °F 80% 30.03 in 10.0 mi NNE 10.4 mph - 0.01 in   Overcast
5:55 PM 73.9 °F 67.1 °F 79% 30.03 in 10.0 mi NE 11.5 mph 18.4 mph 0.01 in   Overcast
6:15 PM 73.6 °F 67.3 °F 81% 30.03 in 10.0 mi NE 9.2 mph - N/A   Overcast
6:35 PM 73.6 °F 67.5 °F 81% 30.03 in 10.0 mi NNE 11.5 mph 18.4 mph N/A   Overcast
6:55 PM 73.8 °F 67.5 °F 81% 30.03 in 10.0 mi NNE 13.8 mph - 0.01 in   Overcast
7:15 PM 73.8 °F 67.6 °F 81% 30.03 in 10.0 mi NE 11.5 mph - N/A   Overcast
7:35 PM 73.9 °F 67.3 °F 80% 30.03 in 10.0 mi NE 11.5 mph - N/A   Overcast
7:55 PM 73.9 °F 67.1 °F 79% 30.04 in 10.0 mi NE 13.8 mph 19.6 mph N/A   Overcast
8:15 PM 74.1 °F 66.6 °F 77% 30.04 in 10.0 mi NE 12.7 mph - 0.01 in   Overcast
8:35 PM 74.1 °F 66.2 °F 76% 30.05 in 10.0 mi NE 12.7 mph 18.4 mph 0.01 in   Overcast
8:55 PM 73.6 °F 66.4 °F 78% 30.05 in 10.0 mi NNE 11.5 mph - 0.01 in   Overcast
9:15 PM 73.6 °F 66.2 °F 78% 30.05 in 10.0 mi NE 10.4 mph - N/A   Mostly Cloudy
9:35 PM 73.6 °F 65.8 °F 77% 30.06 in 10.0 mi NNE 10.4 mph - 0.01 in   Mostly Cloudy
9:55 PM 73.8 °F 66.9 °F 79% 30.06 in 10.0 mi NE 10.4 mph - 0.01 in   Mostly Cloudy
10:15 PM 74.3 °F 66.9 °F 78% 30.06 in 10.0 mi NE 12.7 mph - N/A   Overcast
10:35 PM 74.5 °F 67.6 °F 79% 30.06 in 10.0 mi NE 12.7 mph - N/A   Overcast
10:55 PM 74.7 °F 68.2 °F 80% 30.06 in 10.0 mi NE 11.5 mph - 0.01 in   Overcast
11:15 PM 74.8 °F 68.5 °F 81% 30.07 in 10.0 mi NE 12.7 mph - N/A   Overcast
11:35 PM 74.8 °F 68.5 °F 81% 30.07 in 10.0 mi NE 13.8 mph 17.3 mph N/A   Overcast
11:55 PM 75.0 °F 68.7 °F 81% 30.07 in 10.0 mi NE 12.7 mph - 0.01 in   Overcast